"Pseudo-MPEC" for P22mZMl

Created 2026 May 8 1:35:06 UT using Find_Orb

Click here for an explanation of pseudo-MPECs

 
 Astrometry: 
     P22mZMl*0C2026 05 06.32512512 40 27.218-30 35 21.40   ~569K 21.70wXNEOCPF52
     P22mZMl 0C2026 05 06.33577312 40 27.216-30 34 46.14   ~569K 21.46wXNEOCPF52
     P22mZMl 0C2026 05 06.34611712 40 27.213-30 34 11.93   ~569K 21.40wXNEOCPF52
     P22mZMl 0C2026 05 06.40662312 40 27.209-30 30 52.20   ~56GZ 21.26GVNEOCPF52
     P22mZMl 0C2026 05 06.40749512 40 27.224-30 30 48.68   ~56GZ 21.85GVNEOCPF52
     P22mZMl 1C2026 05 07.17676812 40 33.128-29 49 00.84   ~575K 21.07GVNEOCPI52
     P22mZMl 1C2026 05 07.18231312 40 33.128-29 48 42.52   ~575K 21.45GVNEOCPI52
     P22mZMl 1C2026 05 07.18966012 40 33.172-29 48 19.69   ~575K 21.56GVNEOCPI52
     P22mZMl 1C2026 05 07.19838412 40 33.179-29 47 52.15   ~575K 21.32GVNEOCPI52
     P22mZMl KC2026 05 07.23408812 40 33.180-29 45 56.04   ~576o 21.3 GWNEOCPH01
     P22mZMl KC2026 05 07.23855012 40 33.199-29 45 41.42   ~576o 21.5 GWNEOCPH01
     P22mZMl KC2026 05 07.24787212 40 33.222-29 45 11.49   ~576o 21.4 GWNEOCPH01
     P22mZMl KC2026 05 07.26518312 40 33.274-29 44 15.33   ~576o 21.5 GWNEOCPH01

Station data:
(F52) Pan-STARRS 2, Haleakala  (N20.707382 W156.255910)  US/Hawaii.
   Observers J. Herman, T. Lowe, P. Minguez, A. Schultz, I. Smith. Measurers
   K. Chambers, T. de Boer, J. Fairlamb, H. Gao, M. Huber, C.-C. Lin, E.
   Magnier, Y. Ramanjooloo, R. Wainscoat, R. Weryk. 1.8-m Ritchey-Chrétien +
   CCD.
(H01) Magdalena Ridge Observatory, Socorro  (N33.984833 W107.189333)  US/New
   Mexico.  Observers W. H. Ryan, E. V. Ryan. Measurer W. H. Ryan. 2.4-m
   f/8.9 reflector + CCD.
(I52) Steward Observatory, Mt. Lemmon Station  (N32.442570 W110.788920)
   US/Arizona. Measurers T. Beuden, V. F. Carvajal, D. Fay, J. B. Fazekas, D.
   C. Fuls, A. R. Gibbs, A. D. Grauer, H. Gröller, J. K. Hogan, R. A.
   Kowalski, S. M. Larson, G. J. Leonard, D. Rankin, R. L. Seaman, F. C.
   Shelly, K. W. Wierzchoś. 1.0-m prime focus + CCD.

Orbital elements:  P22mZMl
   Perihelion 2026 Jan 9.480274 +/- 5.07 TT = 11:31:35.6 (JD 2461049.980274)
Epoch 2026 May  7.0 TT = JDT 2461167.5   Earth MOID: 0.1894   Ve: 0.0488
M  54.841187778 +/- 5.9             (J2000 ecliptic)             AutoNEOCP
n   0.466655169 +/- 0.0356          Peri.  220.933705 +/- 1.8
a   1.646159812 +/- 0.0837          Node   231.028467 +/- 0.7
e   0.56632540 +/- 0.0421           Incl.   34.363689 +/- 1.5
P   2.112/771.433d         H 20.51  G  0.15   U 10.5
q 0.713897695 +/- 0.045    Q 2.578421928 +/- 0.192
From 13 observations 2026 May 6-7 (22.6 hr); mean residual 0".28
Residuals in arcseconds: 
260506 F52  .06-  .11-    260507 I52  .25+  .08+    260507 H01  .19-  .26+    
260506 F52  .03-  .02+    260507 I52  .07+  .53+    260507 H01  .23-  .04+    
260506 F52  .03-  .08+    260507 I52  .40+  .32-    260507 H01  .23-  .20+    
260506 F52  .04-  .30-    260507 I52  .22+  .91-    
260506 F52  .15+  .33+    260507 H01  .28-  .06+    

Ephemerides (geocentric):
Date (UTC) HH   RA             Dec           delta  r     elong  mag " sig PA
---- --------  ------------   ------------  ------ ------ -----  --- --------
2026 05 08 02  12 40 40.975   -29 00 36.43  .67034 1.6099 146.2 21.7 .866  38
2026 05 08 03  12 40 41.391   -28 58 25.17  .67075 1.6102 146.2 21.7 .906  39
2026 05 08 04  12 40 41.811   -28 56 14.05  .67117 1.6105 146.1 21.7 .947  40
2026 05 08 05  12 40 42.234   -28 54 03.08  .67159 1.6108 146.1 21.7 0.99  41
2026 05 08 06  12 40 42.662   -28 51 52.26  .67202 1.6112 146.1 21.7 1.03  42
2026 05 08 07  12 40 43.094   -28 49 41.58  .67244 1.6115 146.1 21.7 1.08  43
2026 05 08 08  12 40 43.529   -28 47 31.06  .67286 1.6118 146.1 21.7 1.13  44
2026 05 08 09  12 40 43.969   -28 45 20.69  .67328 1.6121 146.0 21.7 1.18  44
2026 05 08 10  12 40 44.412   -28 43 10.46  .67370 1.6124 146.0 21.7 1.22  45
2026 05 08 11  12 40 44.860   -28 41 00.38  .67413 1.6128 146.0 21.7 1.28  46
2026 05 08 12  12 40 45.311   -28 38 50.46  .67455 1.6131 146.0 21.7 1.33  46
2026 05 08 13  12 40 45.766   -28 36 40.68  .67497 1.6134 146.0 21.7 1.38  47
2026 05 08 14  12 40 46.225   -28 34 31.05  .67540 1.6137 145.9 21.7 1.44  48
2026 05 08 15  12 40 46.688   -28 32 21.57  .67582 1.6141 145.9 21.7 1.49  48
2026 05 08 16  12 40 47.155   -28 30 12.24  .67625 1.6144 145.9 21.7 1.55  49
2026 05 08 17  12 40 47.626   -28 28 03.05  .67668 1.6147 145.9 21.7 1.61  49
2026 05 08 18  12 40 48.101   -28 25 54.02  .67710 1.6150 145.8 21.7 1.67  50
2026 05 08 19  12 40 48.579   -28 23 45.13  .67753 1.6154 145.8 21.7 1.73  50
2026 05 08 20  12 40 49.061   -28 21 36.40  .67796 1.6157 145.8 21.7 1.80  51
2026 05 08 21  12 40 49.548   -28 19 27.81  .67839 1.6160 145.8 21.7 1.86  51
2026 05 08 22  12 40 50.038   -28 17 19.37  .67882 1.6163 145.8 21.7 1.93  52
2026 05 08 23  12 40 50.532   -28 15 11.08  .67924 1.6166 145.7 21.7 1.99  52
2026 05 09 00  12 40 51.029   -28 13 02.94  .67967 1.6170 145.7 21.7 2.06  52
2026 05 09 01  12 40 51.531   -28 10 54.95  .68010 1.6173 145.7 21.7 2.13  53
2026 05 09 02  12 40 52.036   -28 08 47.11  .68054 1.6176 145.7 21.7 2.20  53
2026 05 09 03  12 40 52.545   -28 06 39.42  .68097 1.6179 145.7 21.7 2.28  53
2026 05 09 04  12 40 53.058   -28 04 31.87  .68140 1.6182 145.6 21.7 2.35  54
2026 05 09 05  12 40 53.575   -28 02 24.48  .68183 1.6186 145.6 21.7 2.42  54
2026 05 09 06  12 40 54.096   -28 00 17.23  .68226 1.6189 145.6 21.7 2.50  54
2026 05 09 07  12 40 54.620   -27 58 10.14  .68270 1.6192 145.6 21.7 2.58  55
2026 05 09 08  12 40 55.148   -27 56 03.19  .68313 1.6195 145.5 21.7 2.66  55
2026 05 09 09  12 40 55.680   -27 53 56.39  .68356 1.6199 145.5 21.7 2.74  55
2026 05 09 10  12 40 56.216   -27 51 49.74  .68400 1.6202 145.5 21.8 2.82  56
2026 05 09 11  12 40 56.756   -27 49 43.24  .68443 1.6205 145.5 21.8 2.90  56
2026 05 09 12  12 40 57.299   -27 47 36.88  .68487 1.6208 145.5 21.8 2.98  56
2026 05 09 13  12 40 57.846   -27 45 30.68  .68531 1.6211 145.4 21.8 3.07  56
2026 05 09 14  12 40 58.397   -27 43 24.63  .68574 1.6215 145.4 21.8 3.16  57
2026 05 09 15  12 40 58.951   -27 41 18.72  .68618 1.6218 145.4 21.8 3.24  57
2026 05 09 16  12 40 59.509   -27 39 12.97  .68662 1.6221 145.4 21.8 3.33  57
2026 05 09 17  12 41 00.071   -27 37 07.36  .68706 1.6224 145.3 21.8 3.42  57
2026 05 09 18  12 41 00.637   -27 35 01.90  .68749 1.6227 145.3 21.8 3.51  57
2026 05 09 19  12 41 01.206   -27 32 56.59  .68793 1.6231 145.3 21.8 3.61  58
2026 05 09 20  12 41 01.779   -27 30 51.43  .68837 1.6234 145.3 21.8 3.70  58
2026 05 09 21  12 41 02.356   -27 28 46.42  .68881 1.6237 145.2 21.8 3.79  58
2026 05 09 22  12 41 02.937   -27 26 41.55  .68925 1.6240 145.2 21.8 3.89  58
2026 05 09 23  12 41 03.521   -27 24 36.84  .68969 1.6243 145.2 21.8 3.99  58
2026 05 10 00  12 41 04.109   -27 22 32.27  .69014 1.6247 145.2 21.8 4.09  59
2026 05 10 01  12 41 04.700   -27 20 27.86  .69058 1.6250 145.2 21.8 4.19  59